Regional Weather Roundup
Issued by NWS Green Bay, WI

Home | Current Version | Previous Version | Text Only | Print | Product List | Glossary On
Versions: 1 2 3 4 5 6 7 8 9 10 11 12 13 14 15 16 17 18 19 20 21 22 23 24 25 26 27 28 29 30 31 32 33 34 35 36 37 38 39 40 41 42 43 44 45 46 47 48 49 50
000
ASUS43 KGRB 151711
RWRGRB

NORTH-CENTRAL AND NORTHEAST WISCONSIN REGIONAL WEATHER ROUNDUP
NATIONAL WEATHER SERVICE GREEN BAY WI
1100 AM CST FRI DEC 15 2017

WIZ005-009-010>012-018-019-151800-
NORTH CENTRAL WISCONSIN

CITY           SKY/WX    TMP DP  RH WIND       PRES   REMARKS
IRONWOOD       LGT SNOW  12   9  85 W13       29.80S FOG     WCI  -3
MANITOWISH WTR FLURRIES  12   6  76 W8G16     29.77S WCI   1
ARBOR VITAE    LGT SNOW  14   8  76 NW8       29.76F WCI   3
EAGLE RIVER    PTSUNNY   14   7  73 NW13G20   29.75S WCI   0
LAND O LAKES   FLURRIES  17  10  73 W9        29.75S WCI   6
RHINELANDER    CLOUDY    14   6  70 NW12      29.77F WCI   0
PHILLIPS       FLURRIES  13   6  75 NW6       29.80F WCI   3
ANTIGO         CLOUDY    13   6  73 W9        29.79F WCI   1
TOMAHAWK       LGT SNOW  14   8  76 W8        29.80S WCI   3
MERRILL        LGT SNOW  15   8  73 NW7       29.82F WCI   6
$$

WIZ013-073-151800-
NORTHEAST WISCONSIN

CITY           SKY/WX    TMP DP  RH WIND       PRES   REMARKS
IRON MOUNTAIN  MOSUNNY   18   9  68 W10       29.73F WCI   6
MARINETTE      PTSUNNY   21  11  65 W7        29.80F
OCONTO         PTSUNNY   18   8  64 W14       29.82F WCI   4
$$

WIZ017-030-035>037-045-151800-
CENTRAL WISCONSIN

CITY           SKY/WX    TMP DP  RH WIND       PRES   REMARKS
MEDFORD        LGT SNOW  14   7  76 W7        29.81F WCI   3
WAUSAU         CLOUDY    15   8  73 W14       29.82S WCI   0
MOSINEE        CLOUDY    16   9  73 NW9G17    29.84S WCI   4
MARSHFIELD     SUNNY     17   8  67 NW13      29.83F WCI   4
WISC RAPIDS    CLOUDY    19   9  65 NW13      29.87F WCI   6
STEVENS POINT  FLURRIES  16   8  70 W8G16     29.85F WCI   5
WAUPACA        CLOUDY    23  11  59 NW12G17   29.86S
SHAWANO        MOSUNNY   21   9  59 W12G17    29.84S WCI   9
CLINTONVILLE   NOT AVBL
WAUTOMA        CLOUDY    23  11  60 W14       29.87F
$$

WIZ038-039-048-051-151800-
FOX VALLEY

CITY           SKY/WX    TMP DP  RH WIND       PRES   REMARKS
NWS GREEN BAY  SUNNY     21   9  59 NW15      29.84F WCI   8
APPLETON       FLURRIES  19  10  68 NW16      29.83R WCI   5
OSHKOSH        FLURRIES  22  13  68 W13       29.85S WCI  10
FOND DU LAC    CLOUDY    23  11  60 W16       29.86S WCI  10
$$

WIZ022-050-052-151800-
EAST CENTRAL WISCONSIN

CITY           SKY/WX    TMP DP  RH WIND       PRES   REMARKS
EPHRAIM        CLOUDY    19  12  73 W8        29.76S WCI   9
WASHINGTON ISL CLOUDY    21  15  76 NW14G21   29.75S WCI   8
STURGEON BAY   MOSUNNY   20  12  71 W13       29.80F WCI   7
MANITOWOC      CLOUDY    24  15  68 W13       29.84F
SHEBOYGAN      CLOUDY    23  15  71 W16G22    29.84S WCI  10
$$

LMZ563-521-522-541>543-151800-
LAKESHORE

STATION/POSITION TIME  TEMP    WIND        PRES    VSBY  WAVE
                       AIR SEA DIR/SP/G                  HT/PER
                 (UTC) (F)     (DEG/KT/KT) (MB)    (MI)  (FT/S)
SHEBOYGAN LKSHOR 1700   23     290/ 12/ 14 1011.5F
KEWAUNEE LKSHORE 1648   20     280/  9/ 14 1009.4F
NORTHPORT PIER   1704   22     300/  8/ 18 1007.8
SISTER BAY LKSHO 1620   22     310/ 21/ 23   N/A
MENOMINEE LKSHOR 1648   19     260/  8/ 15 1008.8F
$$




USA.gov is the U.S. government's official web portal to all federal, state and local government web resources and services.